PDT,Max TemperatureF,Mean TemperatureF,Min TemperatureF,Max Dew PointF,MeanDew PointF,Min DewpointF,Max Humidity, Mean Humidity, Min Humidity, Max Sea Level PressureIn, Mean Sea Level PressureIn, Min Sea Level PressureIn, Max VisibilityMiles, Mean VisibilityMiles, Min VisibilityMiles, Max Wind SpeedMPH, Mean Wind SpeedMPH, Max Gust SpeedMPH,PrecipitationIn, CloudCover, Events, WindDirDegrees
2013-5-1,64,40,16,22,16,7,84,48,11,30.52,30.49,30.43,10,10,10,16,5,21,0.00,0,,354
2013-5-2,78,55,31,24,13,-6,54,29,4,30.53,30.38,30.25,10,10,10,15,5,26,0.00,0,,101
2013-5-3,73,53,32,29,25,21,61,40,19,30.26,30.21,30.16,10,10,10,23,7,28,0.00,0,,2
2013-5-4,72,53,33,32,27,24,69,45,20,30.17,30.04,29.92,10,10,10,31,11,40,0.00,0,,15
2013-5-5,76,54,32,33,30,26,75,47,19,29.90,29.83,29.75,10,10,10,28,10,36,T,1,,332
2013-5-6,83,61,39,40,31,25,64,39,14,29.85,29.79,29.72,10,10,10,23,7,30,0.00,2,,357
2013-5-7,81,61,41,44,39,27,89,52,14,29.95,29.85,29.80,10,10,10,22,7,26,0.00,1,,272
2013-5-8,83,63,42,46,40,29,82,49,15,30.07,30.00,29.95,10,10,10,20,5,31,T,1,,233
2013-5-9,85,63,41,45,42,35,89,53,17,30.13,30.09,30.02,10,10,8,28,5,35,0.00,1,,168
2013-5-10,87,66,45,48,40,32,83,49,15,30.19,30.14,30.08,10,10,10,24,5,30,0.00,1,Thunderstorm,231
2013-5-11,90,69,48,50,44,31,77,45,12,30.17,30.08,30.00,10,10,10,21,7,29,0.00,0,,226
2013-5-12,84,69,54,50,45,39,77,50,22,30.12,30.02,29.97,10,10,10,22,9,26,0.00,0,,292
2013-5-13,70,53,36,46,40,33,96,62,27,30.16,30.05,29.99,10,10,10,31,10,39,0.00,2,,291
2013-5-14,69,50,31,35,32,28,89,56,23,30.17,30.10,30.03,10,10,10,16,6,22,0.00,0,,342
2013-5-15,65,52,38,47,35,30,82,55,28,30.06,30.02,29.96,10,10,7,18,7,23,T,3,Rain,310
2013-5-16,64,50,36,46,39,33,93,66,39,30.01,29.94,29.87,10,10,6,18,5,22,0.09,6,Rain,279
2013-5-17,62,53,43,43,36,31,86,61,36,30.08,29.98,29.93,10,10,9,20,6,26,0.03,6,Rain,298
2013-5-18,62,47,32,39,35,31,96,67,37,30.25,30.13,30.08,10,10,10,22,8,29,T,4,Rain,280
2013-5-19,67,49,31,38,33,29,89,60,31,30.33,30.29,30.26,10,10,10,16,6,22,T,2,,231
2013-5-20,77,53,29,42,30,23,92,54,15,30.31,30.11,29.86,10,10,10,17,5,23,0.00,0,,127
2013-5-21,59,47,34,39,31,23,70,48,25,29.91,29.79,29.71,10,10,6,31,13,40,0.01,5,Rain,269
2013-5-22,50,36,21,30,27,19,81,62,42,29.97,29.94,29.91,10,9,2,15,5,21,T,6,Rain-Snow,163
2013-5-23,60,42,23,36,27,20,88,57,26,30.01,29.97,29.94,10,10,8,18,6,23,0.03,4,Rain,288
2013-5-24,59,46,32,37,31,25,92,60,28,30.04,30.00,29.96,10,10,10,20,7,26,0.00,3,,329
2013-5-25,68,48,28,43,32,26,92,59,25,30.04,29.98,29.91,10,10,10,16,6,22,T,2,,261
2013-5-26,64,51,38,46,41,33,93,64,34,30.03,29.97,29.91,10,10,7,22,7,29,0.09,6,Rain,302
2013-5-27,61,49,37,48,42,34,89,73,57,30.00,29.85,29.77,10,10,7,20,7,24,0.18,7,Rain,181
2013-5-28,66,55,44,45,38,32,92,61,30,29.89,29.84,29.74,10,10,9,15,5,20,0.05,5,Rain,347
2013-5-29,62,53,44,45,39,34,93,66,39,29.99,29.80,29.66,10,10,7,30,13,36,0.13,5,Rain,290
2013-5-30,63,47,31,35,32,29,82,56,30,30.22,30.09,30.01,10,10,10,20,6,28,0.00,1,,330
2013-5-31,66,48,29,36,32,28,92,59,26,30.28,30.23,30.18,10,10,10,12,4,15,0.00,0,,244